星链-5667 (STARLINK-5667 )

导读

STARLINK-5667是美国太空探索技术公司星链互联网卫星项目的卫星之一,于2023年1月26日在美国发射入轨,属于星链低轨卫星星座的组成部分,主要为全球用户提供低延迟、高速率的卫星互联网接入服务,目前在近地轨道运行,服务全球多地的网络连接需求,推动全球卫星互联网覆盖网络建设。

基本信息
目录编号:
55337
目录名称:
STARLINK-5667
国际标识:
2023-013G
轨道中心:
EARTH
卫星名称:
星链-5667
卫星全名:
星链-5667 (STARLINK-5667 )
卫星状态:
在轨 (已飞行1325 天)
发射日期:
2023-01-26 UTC
国别 :
美国 (US)
星等 :
--
该卫星已列入 空间交会检测服务 Space Conjunction Data Service (SCDS) ,当前飞行风险评估等级: 高风险
轨道信息
数据来源 国际轨道数据 AOE轨道数据
星历时间 2026-09-12T05:11:03+0800
19小时前
查看轨道信息
2026-09-10T06:00:00+0800
2天前
查看轨道信息
半长轴 6861.199km 6861.201km
偏心率 0.0000943 0.000001
轨道倾角 43.004° 43.001°
近地点辐角 264.681° 147.980°
升交点赤经 317.609° 328.714°
平近点角 95.394° 187.815°
近地点 482.414km 483.057km
远地点 483.71km 483.071km
周期 94.267分钟 94.267分钟
每日圈数 15.275757 15.275751
详细信息
固有亮度:
5
最大亮度:
2.5
卫星平台:
Starlink v1.5
覆盖范围:
全球
运营商:
太空探索技术公司
运营商所在国:
美国
制造商(研发单位):
太空探索技术公司
制造商所在国:
美国
使用方式:
暂无
卫星简介
星链(Starlink)计划是由太空探索技术公司(SpaceX)提出的一个巨型低轨卫星互联网星座项目,计划在2019年至2024年间在太空搭建由约1.2万颗卫星组成的“星链”网络,其中1584颗将部署在地球上空550千米处的近地轨道,并从2020年开始工作。该卫星仍在工作。
2D轨道图
3D轨道图
轨道高度分析图
轨道倾角分析图
轨道综合分析图
查看轨道综合分析图
交会数据列表
事件ID 空间交会对象 最接近时刻(TCA) 交会距离 交会风险概率(CRP) 交会风险指数(CRI) 操作
CDM_260914-212705-533706-762321
2026-09-14T
21:27:37+0000
0.423 km
远距离
2.352935E-4 高风险 0.82
CDM_260912-125105-320205-533721
2026-09-12T
12:51:46+0000
1.532 km
极远距离
3.772225E-6 低风险 0.47
CDM_260914-195305-533706-762321
2026-09-14T
19:53:28+0000
2.422 km
极远距离
1.477447E-6 低风险 0.38
与全量物体交会距离演化趋势
与全量物体交会风险概率演化趋势